Time,TemperatureF,DewpointF,PressureIn,WindDirection,WindDirectionDegrees,WindSpeedMPH,WindSpeedGustMPH,Humidity,HourlyPrecipIn,Conditions,Clouds,dailyrainin,SolarRadiationWatts/m^2,SoftwareType,DateUTC
2013-06-07 00:01:00,60.5,58.8,29.88,SSE,165,0.0,0.0,94,0.00,,,0.00,0,WeatherCatV1.14B232,2013-06-07 04:01:00,
2013-06-07 00:06:00,60.5,58.8,29.87,SSE,165,0.0,0.0,94,0.00,,,0.00,0,WeatherCatV1.14B232,2013-06-07 04:06:00,
2013-06-07 00:11:00,60.5,58.8,29.87,ESE,121,0.0,0.0,94,0.00,,,0.00,0,WeatherCatV1.14B232,2013-06-07 04:11:00,
2013-06-07 00:16:00,60.5,58.8,29.87,ESE,121,0.0,0.0,94,0.00,,,0.00,0,WeatherCatV1.14B232,2013-06-07 04:16:00,
2013-06-07 00:21:00,60.5,58.8,29.87,ESE,121,0.0,0.0,94,0.00,,,0.00,0,WeatherCatV1.14B232,2013-06-07 04:21:00,
2013-06-07 00:26:00,60.5,59.1,29.87,ESE,121,0.0,0.0,95,0.00,,,0.00,0,WeatherCatV1.14B232,2013-06-07 04:26:00,
2013-06-07 00:31:00,60.4,59.0,29.87,ESE,121,0.0,0.0,95,0.00,,,0.00,0,WeatherCatV1.14B232,2013-06-07 04:31:00,
2013-06-07 00:36:00,60.4,59.0,29.87,ESE,121,0.0,0.0,95,0.00,,,0.00,0,WeatherCatV1.14B232,2013-06-07 04:36:00,
2013-06-07 00:41:00,60.4,59.3,29.86,ESE,121,0.0,0.0,96,0.00,,,0.01,0,WeatherCatV1.14B232,2013-06-07 04:41:00,
2013-06-07 00:46:00,60.4,59.3,29.86,ESE,121,0.0,0.0,96,0.00,,,0.01,0,WeatherCatV1.14B232,2013-06-07 04:46:00,
2013-06-07 00:51:00,60.4,59.3,29.85,ESE,121,0.0,0.0,96,0.00,,,0.01,0,WeatherCatV1.14B232,2013-06-07 04:51:00,
2013-06-07 00:56:00,60.4,59.3,29.85,ESE,121,0.0,0.0,96,0.00,,,0.01,0,WeatherCatV1.14B232,2013-06-07 04:56:00,
2013-06-07 01:01:00,60.3,59.2,29.85,ESE,121,0.0,0.0,96,0.00,,,0.01,0,WeatherCatV1.14B232,2013-06-07 05:01:00,
2013-06-07 01:06:00,60.3,59.2,29.85,ESE,121,0.0,0.0,96,0.00,,,0.02,0,WeatherCatV1.14B232,2013-06-07 05:06:00,
2013-06-07 01:11:00,60.3,59.2,29.84,ESE,121,0.0,0.0,96,0.00,,,0.02,0,WeatherCatV1.14B232,2013-06-07 05:11:00,
2013-06-07 01:16:00,60.3,59.2,29.84,ESE,121,0.0,0.0,96,0.00,,,0.02,0,WeatherCatV1.14B232,2013-06-07 05:16:00,
2013-06-07 01:21:00,60.3,59.2,29.84,ESE,121,0.0,0.0,96,0.00,,,0.02,0,WeatherCatV1.14B232,2013-06-07 05:21:00,
2013-06-07 01:26:00,60.3,59.2,29.84,ESE,121,0.0,0.0,96,0.00,,,0.02,0,WeatherCatV1.14B232,2013-06-07 05:26:00,
2013-06-07 01:31:00,60.3,59.2,29.84,ESE,121,0.0,0.0,96,0.00,,,0.02,0,WeatherCatV1.14B232,2013-06-07 05:31:00,
2013-06-07 01:36:00,60.4,59.3,29.84,ESE,121,0.0,0.0,96,0.00,,,0.02,0,WeatherCatV1.14B232,2013-06-07 05:36:00,
2013-06-07 01:41:00,60.4,59.3,29.84,ESE,121,0.0,0.0,96,0.00,,,0.02,0,WeatherCatV1.14B232,2013-06-07 05:41:00,
2013-06-07 01:46:00,60.4,59.3,29.84,ESE,121,0.0,0.0,96,0.00,,,0.02,0,WeatherCatV1.14B232,2013-06-07 05:46:00,
2013-06-07 01:51:00,60.4,59.3,29.83,ESE,121,0.0,0.0,96,0.00,,,0.02,0,WeatherCatV1.14B232,2013-06-07 05:51:00,
2013-06-07 01:56:00,60.5,59.6,29.83,ESE,121,0.0,0.0,97,0.00,,,0.02,0,WeatherCatV1.14B232,2013-06-07 05:56:00,
2013-06-07 02:01:00,60.5,59.6,29.83,ESE,121,0.0,0.0,97,0.00,,,0.02,0,WeatherCatV1.14B232,2013-06-07 06:01:00,
2013-06-07 02:06:00,60.6,59.7,29.83,SE,126,0.0,1.0,97,0.00,,,0.03,0,WeatherCatV1.14B232,2013-06-07 06:06:00,
2013-06-07 02:11:00,60.6,59.7,29.83,SE,126,0.0,0.0,97,0.00,,,0.03,0,WeatherCatV1.14B232,2013-06-07 06:11:00,
2013-06-07 02:16:00,60.7,59.8,29.83,SE,126,0.0,0.0,97,0.00,,,0.03,0,WeatherCatV1.14B232,2013-06-07 06:16:00,
2013-06-07 02:21:00,60.7,59.8,29.83,ESE,119,0.0,0.0,97,0.00,,,0.03,0,WeatherCatV1.14B232,2013-06-07 06:21:00,
2013-06-07 02:26:00,60.7,59.8,29.82,ESE,119,0.0,0.0,97,0.00,,,0.03,0,WeatherCatV1.14B232,2013-06-07 06:26:00,
2013-06-07 02:31:00,60.8,59.9,29.82,ESE,119,0.0,0.0,97,0.00,,,0.03,0,WeatherCatV1.14B232,2013-06-07 06:31:00,
2013-06-07 02:36:00,60.8,59.9,29.82,NE,49,0.0,0.0,97,0.00,,,0.03,0,WeatherCatV1.14B232,2013-06-07 06:36:00,
2013-06-07 02:41:00,60.9,60.0,29.82,NNE,26,0.0,0.0,97,0.00,,,0.03,0,WeatherCatV1.14B232,2013-06-07 06:41:00,
2013-06-07 02:46:00,60.9,60.0,29.82,NNE,27,0.0,1.0,97,0.00,,,0.03,0,WeatherCatV1.14B232,2013-06-07 06:46:00,
2013-06-07 02:51:00,60.9,60.0,29.82,ENE,75,0.0,0.0,97,0.00,,,0.03,0,WeatherCatV1.14B232,2013-06-07 06:51:00,
2013-06-07 02:56:00,61.0,60.4,29.82,North,349,0.0,0.0,98,0.00,,,0.03,0,WeatherCatV1.14B232,2013-06-07 06:56:00,
2013-06-07 03:01:00,61.0,60.4,29.82,North,349,0.0,0.0,98,0.00,,,0.03,0,WeatherCatV1.14B232,2013-06-07 07:01:00,
2013-06-07 03:06:00,61.0,60.4,29.82,East,86,0.0,2.0,98,0.00,,,0.03,0,WeatherCatV1.14B232,2013-06-07 07:06:00,
2013-06-07 03:11:00,61.0,60.4,29.81,East,86,0.0,0.0,98,0.00,,,0.03,0,WeatherCatV1.14B232,2013-06-07 07:11:00,
2013-06-07 03:16:00,61.0,60.4,29.81,East,90,0.0,0.0,98,0.00,,,0.03,0,WeatherCatV1.14B232,2013-06-07 07:16:00,
2013-06-07 03:21:00,61.1,60.5,29.82,East,80,0.0,1.0,98,0.00,,,0.03,0,WeatherCatV1.14B232,2013-06-07 07:21:00,
2013-06-07 03:26:00,61.0,60.4,29.81,WSW,253,0.0,0.0,98,0.00,,,0.03,0,WeatherCatV1.14B232,2013-06-07 07:26:00,
2013-06-07 03:31:00,60.9,60.3,29.81,WSW,253,0.0,0.0,98,0.00,,,0.03,0,WeatherCatV1.14B232,2013-06-07 07:31:00,
2013-06-07 03:36:00,60.9,60.3,29.81,NNE,15,0.0,1.0,98,0.00,,,0.04,0,WeatherCatV1.14B232,2013-06-07 07:36:00,
2013-06-07 03:41:00,60.9,60.3,29.81,NNE,15,0.0,0.0,98,0.00,,,0.04,0,WeatherCatV1.14B232,2013-06-07 07:41:00,
2013-06-07 03:46:00,60.8,59.9,29.81,NNE,15,0.0,0.0,97,0.00,,,0.04,0,WeatherCatV1.14B232,2013-06-07 07:46:00,
2013-06-07 03:51:00,60.7,59.8,29.80,South,185,0.0,1.0,97,0.00,,,0.04,0,WeatherCatV1.14B232,2013-06-07 07:51:00,
2013-06-07 03:56:00,60.6,59.7,29.80,South,184,0.0,0.0,97,0.00,,,0.04,0,WeatherCatV1.14B232,2013-06-07 07:56:00,
2013-06-07 04:01:00,60.7,59.8,29.80,South,184,0.0,0.0,97,0.00,,,0.05,0,WeatherCatV1.14B232,2013-06-07 08:01:00,
2013-06-07 04:06:00,60.7,59.8,29.80,WSW,238,0.0,0.0,97,0.00,,,0.05,0,WeatherCatV1.14B232,2013-06-07 08:06:00,
2013-06-07 04:11:00,60.6,59.7,29.80,WSW,238,0.0,0.0,97,0.00,,,0.05,0,WeatherCatV1.14B232,2013-06-07 08:11:00,
2013-06-07 04:16:00,60.6,59.7,29.80,WSW,237,0.0,0.0,97,0.04,,,0.06,0,WeatherCatV1.14B232,2013-06-07 08:16:00,
2013-06-07 04:21:00,60.5,59.6,29.80,SW,226,0.0,0.0,97,0.04,,,0.06,0,WeatherCatV1.14B232,2013-06-07 08:21:00,
2013-06-07 04:26:00,60.4,59.5,29.80,SW,226,0.0,0.0,97,0.05,,,0.07,0,WeatherCatV1.14B232,2013-06-07 08:26:00,
2013-06-07 04:31:00,60.4,59.8,29.80,NNW,338,0.0,0.0,98,0.05,,,0.07,0,WeatherCatV1.14B232,2013-06-07 08:31:00,
2013-06-07 04:36:00,60.3,59.7,29.80,NNE,29,0.0,2.0,98,0.06,,,0.08,0,WeatherCatV1.14B232,2013-06-07 08:36:00,
2013-06-07 04:41:00,60.2,59.6,29.79,SSE,158,0.0,2.0,98,0.39,,,0.10,0,WeatherCatV1.14B232,2013-06-07 08:41:00,
2013-06-07 04:46:00,60.1,59.5,29.80,NNW,332,0.0,3.0,98,0.18,,,0.11,0,WeatherCatV1.14B232,2013-06-07 08:46:00,
2013-06-07 04:51:00,60.1,59.5,29.79,NNE,20,1.0,2.0,98,0.14,,,0.12,0,WeatherCatV1.14B232,2013-06-07 08:51:00,
2013-06-07 04:56:00,60.0,59.4,29.79,North,5,0.0,3.0,98,0.07,,,0.12,0,WeatherCatV1.14B232,2013-06-07 08:56:00,
2013-06-07 05:01:00,60.0,59.4,29.79,North,5,0.0,0.0,98,0.07,,,0.13,0,WeatherCatV1.14B232,2013-06-07 09:01:00,
2013-06-07 05:06:00,60.0,59.4,29.79,North,5,0.0,0.0,98,0.06,,,0.13,0,WeatherCatV1.14B232,2013-06-07 09:06:00,
2013-06-07 05:11:00,59.9,59.3,29.79,North,5,0.0,0.0,98,0.04,,,0.13,0,WeatherCatV1.14B232,2013-06-07 09:11:00,
2013-06-07 05:16:00,59.9,59.3,29.79,SW,221,0.0,1.0,98,0.04,,,0.14,0,WeatherCatV1.14B232,2013-06-07 09:16:00,
2013-06-07 05:21:00,59.9,59.3,29.79,SE,142,0.0,2.0,98,0.07,,,0.15,0,WeatherCatV1.14B232,2013-06-07 09:21:00,
2013-06-07 05:26:00,59.9,59.3,29.79,SE,142,0.0,0.0,98,0.07,,,0.15,0,WeatherCatV1.14B232,2013-06-07 09:26:00,
2013-06-07 05:31:00,60.0,59.4,29.79,NNE,32,0.0,2.0,98,0.06,,,0.16,0,WeatherCatV1.14B232,2013-06-07 09:31:00,
2013-06-07 05:36:00,60.0,59.4,29.79,NNE,32,0.0,0.0,98,0.06,,,0.16,0,WeatherCatV1.14B232,2013-06-07 09:36:00,
2013-06-07 05:41:00,60.0,59.4,29.79,NNE,23,0.0,1.0,98,0.06,,,0.17,0,WeatherCatV1.14B232,2013-06-07 09:41:00,
2013-06-07 05:46:00,59.9,59.3,29.79,NNE,12,0.0,1.0,98,0.15,,,0.18,0,WeatherCatV1.14B232,2013-06-07 09:46:00,
2013-06-07 05:51:00,60.0,59.4,29.79,North,355,1.0,2.0,98,0.08,,,0.18,0,WeatherCatV1.14B232,2013-06-07 09:51:00,
2013-06-07 05:56:00,60.0,59.4,29.79,North,355,0.0,2.0,98,0.05,,,0.18,0,WeatherCatV1.14B232,2013-06-07 09:56:00,
2013-06-07 06:01:00,60.0,59.4,29.79,NE,45,0.0,1.0,98,0.05,,,0.19,0,WeatherCatV1.14B232,2013-06-07 10:01:00,
2013-06-07 06:06:00,60.1,59.5,29.79,NE,45,0.0,0.0,98,0.05,,,0.19,5,WeatherCatV1.14B232,2013-06-07 10:06:00,
2013-06-07 06:11:00,60.2,59.6,29.79,NE,45,0.0,0.0,98,0.04,,,0.19,0,WeatherCatV1.14B232,2013-06-07 10:11:00,
2013-06-07 06:16:00,60.3,59.7,29.79,North,355,0.0,0.0,98,0.00,,,0.19,0,WeatherCatV1.14B232,2013-06-07 10:16:00,
2013-06-07 06:21:00,60.3,59.7,29.78,NNE,26,0.0,1.0,98,0.00,,,0.19,0,WeatherCatV1.14B232,2013-06-07 10:21:00,
2013-06-07 06:26:00,60.4,59.8,29.78,ENE,75,0.0,0.0,98,0.00,,,0.20,5,WeatherCatV1.14B232,2013-06-07 10:26:00,
2013-06-07 06:31:00,60.4,59.8,29.78,NNE,24,0.0,0.0,98,0.00,,,0.20,5,WeatherCatV1.14B232,2013-06-07 10:31:00,
2013-06-07 06:36:00,60.4,59.8,29.78,NNE,18,0.0,0.0,98,0.00,,,0.20,9,WeatherCatV1.14B232,2013-06-07 10:36:00,
2013-06-07 06:41:00,60.4,59.8,29.78,East,90,2.0,2.0,98,0.00,,,0.20,7,WeatherCatV1.14B232,2013-06-07 10:41:00,
2013-06-07 06:46:00,60.5,59.9,29.78,North,11,0.0,4.0,98,0.00,,,0.20,11,WeatherCatV1.14B232,2013-06-07 10:46:00,
2013-06-07 06:51:00,60.5,59.9,29.78,ENE,67,0.0,1.0,98,0.00,,,0.20,11,WeatherCatV1.14B232,2013-06-07 10:51:00,
2013-06-07 06:56:00,60.5,59.9,29.78,NNW,335,0.0,1.0,98,0.00,,,0.20,11,WeatherCatV1.14B232,2013-06-07 10:56:00,
2013-06-07 07:01:00,60.6,60.0,29.78,NNE,27,0.0,1.0,98,0.00,,,0.20,11,WeatherCatV1.14B232,2013-06-07 11:01:00,
2013-06-07 07:06:00,60.6,60.3,29.78,NNE,26,2.0,3.0,99,0.00,,,0.20,11,WeatherCatV1.14B232,2013-06-07 11:06:00,
2013-06-07 07:11:00,60.6,60.3,29.78,NNE,28,0.0,0.0,99,0.00,,,0.20,11,WeatherCatV1.14B232,2013-06-07 11:11:00,
2013-06-07 07:16:00,60.7,60.4,29.77,North,355,0.0,4.0,99,0.00,,,0.20,12,WeatherCatV1.14B232,2013-06-07 11:16:00,
2013-06-07 07:21:00,60.7,60.1,29.78,East,80,0.0,1.0,98,0.00,,,0.20,14,WeatherCatV1.14B232,2013-06-07 11:21:00,
2013-06-07 07:26:00,60.7,60.1,29.77,NE,36,0.0,1.0,98,0.00,,,0.20,19,WeatherCatV1.14B232,2013-06-07 11:26:00,
2013-06-07 07:31:00,60.7,60.1,29.77,NNE,28,0.0,3.0,98,0.00,,,0.20,19,WeatherCatV1.14B232,2013-06-07 11:31:00,
2013-06-07 07:36:00,60.8,60.2,29.77,ESE,111,0.0,4.0,98,0.00,,,0.20,19,WeatherCatV1.14B232,2013-06-07 11:36:00,
2013-06-07 07:41:00,60.8,60.5,29.77,North,5,0.0,4.0,99,0.00,,,0.20,19,WeatherCatV1.14B232,2013-06-07 11:41:00,
2013-06-07 07:46:00,60.8,60.5,29.77,East,92,2.0,2.0,99,0.00,,,0.20,21,WeatherCatV1.14B232,2013-06-07 11:46:00,
2013-06-07 07:51:00,60.8,60.5,29.77,NNE,17,0.0,2.0,99,0.00,,,0.20,16,WeatherCatV1.14B232,2013-06-07 11:51:00,
2013-06-07 07:56:00,60.8,60.5,29.77,NNE,28,0.0,0.0,99,0.00,,,0.20,18,WeatherCatV1.14B232,2013-06-07 11:56:00,
2013-06-07 08:01:00,60.9,60.6,29.76,SW,223,0.0,2.0,99,0.00,,,0.20,26,WeatherCatV1.14B232,2013-06-07 12:01:00,
2013-06-07 08:06:00,60.9,60.6,29.76,NNE,12,0.0,2.0,99,0.00,,,0.20,25,WeatherCatV1.14B232,2013-06-07 12:06:00,
2013-06-07 08:11:00,61.0,60.7,29.76,NNE,21,0.0,3.0,99,0.00,,,0.20,28,WeatherCatV1.14B232,2013-06-07 12:11:00,
2013-06-07 08:16:00,61.1,60.8,29.76,NE,55,1.0,1.0,99,0.00,,,0.20,30,WeatherCatV1.14B232,2013-06-07 12:16:00,
2013-06-07 08:21:00,61.1,60.8,29.76,NE,46,0.0,1.0,99,0.00,,,0.20,32,WeatherCatV1.14B232,2013-06-07 12:21:00,
2013-06-07 08:26:00,61.2,60.9,29.76,NE,34,1.0,2.0,99,0.00,,,0.20,30,WeatherCatV1.14B232,2013-06-07 12:26:00,
2013-06-07 08:31:00,61.3,61.0,29.76,NNE,24,0.0,1.0,99,0.00,,,0.20,26,WeatherCatV1.14B232,2013-06-07 12:31:00,
2013-06-07 08:36:00,61.3,61.0,29.76,West,273,0.0,2.0,99,0.00,,,0.20,28,WeatherCatV1.14B232,2013-06-07 12:36:00,
2013-06-07 08:41:00,61.4,61.1,29.76,NNE,17,1.0,2.0,99,0.00,,,0.20,30,WeatherCatV1.14B232,2013-06-07 12:41:00,
2013-06-07 08:46:00,61.4,61.1,29.76,ENE,65,0.0,0.0,99,0.00,,,0.20,26,WeatherCatV1.14B232,2013-06-07 12:46:00,
2013-06-07 08:51:00,61.4,61.1,29.76,NNE,15,0.0,1.0,99,0.00,,,0.20,25,WeatherCatV1.14B232,2013-06-07 12:51:00,
2013-06-07 08:56:00,61.5,61.2,29.76,NNE,15,0.0,2.0,99,0.00,,,0.20,25,WeatherCatV1.14B232,2013-06-07 12:56:00,
2013-06-07 09:01:00,61.6,61.3,29.76,NNE,24,0.0,0.0,99,0.00,,,0.21,33,WeatherCatV1.14B232,2013-06-07 13:01:00,
2013-06-07 09:06:00,61.7,61.4,29.76,NNW,333,0.0,3.0,99,0.25,,,0.23,37,WeatherCatV1.14B232,2013-06-07 13:06:00,
2013-06-07 09:11:00,61.8,61.5,29.75,ENE,57,0.0,1.0,99,0.18,,,0.24,32,WeatherCatV1.14B232,2013-06-07 13:11:00,
2013-06-07 09:16:00,61.8,61.5,29.76,North,0,0.0,3.0,99,0.10,,,0.25,39,WeatherCatV1.14B232,2013-06-07 13:16:00,
2013-06-07 09:21:00,61.9,61.6,29.76,NNE,25,0.0,0.0,99,0.12,,,0.26,44,WeatherCatV1.14B232,2013-06-07 13:21:00,
2013-06-07 09:26:00,62.0,61.7,29.75,NNW,343,4.0,4.0,99,0.11,,,0.27,47,WeatherCatV1.14B232,2013-06-07 13:26:00,
2013-06-07 09:31:00,62.0,61.7,29.76,ENE,74,0.0,4.0,99,0.12,,,0.28,53,WeatherCatV1.14B232,2013-06-07 13:31:00,
2013-06-07 09:36:00,62.1,61.8,29.76,NE,45,0.0,1.0,99,0.09,,,0.28,42,WeatherCatV1.14B232,2013-06-07 13:36:00,
2013-06-07 09:41:00,62.1,61.8,29.76,NNE,28,2.0,2.0,99,0.07,,,0.29,40,WeatherCatV1.14B232,2013-06-07 13:41:00,
2013-06-07 09:46:00,62.2,61.9,29.75,NE,34,0.0,2.0,99,0.07,,,0.29,47,WeatherCatV1.14B232,2013-06-07 13:46:00,
2013-06-07 09:51:00,62.2,61.9,29.75,East,90,1.0,4.0,99,0.06,,,0.30,67,WeatherCatV1.14B232,2013-06-07 13:51:00,
2013-06-07 09:56:00,62.3,62.0,29.75,ENE,57,1.0,3.0,99,0.06,,,0.30,63,WeatherCatV1.14B232,2013-06-07 13:56:00,
2013-06-07 10:01:00,62.3,62.0,29.75,ENE,61,0.0,1.0,99,0.05,,,0.30,74,WeatherCatV1.14B232,2013-06-07 14:01:00,
2013-06-07 10:06:00,62.5,62.2,29.75,West,265,0.0,1.0,99,0.04,,,0.31,67,WeatherCatV1.14B232,2013-06-07 14:06:00,
2013-06-07 10:11:00,62.5,62.2,29.75,SE,142,0.0,3.0,99,0.04,,,0.31,65,WeatherCatV1.14B232,2013-06-07 14:11:00,
2013-06-07 10:16:00,62.5,62.2,29.75,SSE,157,0.0,1.0,99,0.08,,,0.32,83,WeatherCatV1.14B232,2013-06-07 14:16:00,
2013-06-07 10:21:00,62.5,62.2,29.75,East,89,0.0,1.0,99,0.07,,,0.33,86,WeatherCatV1.14B232,2013-06-07 14:21:00,
2013-06-07 10:26:00,62.6,62.3,29.75,NNE,21,0.0,1.0,99,0.07,,,0.33,74,WeatherCatV1.14B232,2013-06-07 14:26:00,
2013-06-07 10:31:00,62.6,62.3,29.74,NNE,19,0.0,1.0,99,0.10,,,0.34,74,WeatherCatV1.14B232,2013-06-07 14:31:00,
2013-06-07 10:36:00,62.6,62.3,29.74,NE,55,0.0,0.0,99,0.06,,,0.34,83,WeatherCatV1.14B232,2013-06-07 14:36:00,
2013-06-07 10:41:00,62.6,62.3,29.74,NE,45,0.0,3.0,99,0.06,,,0.35,69,WeatherCatV1.14B232,2013-06-07 14:41:00,
2013-06-07 10:46:00,62.6,62.3,29.74,North,9,0.0,2.0,99,0.06,,,0.35,69,WeatherCatV1.14B232,2013-06-07 14:46:00,
2013-06-07 10:51:00,62.7,62.4,29.74,North,9,0.0,0.0,99,0.05,,,0.36,84,WeatherCatV1.14B232,2013-06-07 14:51:00,
2013-06-07 10:56:00,62.6,62.3,29.74,ENE,65,0.0,5.0,99,0.05,,,0.36,107,WeatherCatV1.14B232,2013-06-07 14:56:00,
2013-06-07 11:01:00,62.5,62.2,29.74,NNE,13,0.0,2.0,99,0.07,,,0.37,111,WeatherCatV1.14B232,2013-06-07 15:01:00,
2013-06-07 11:06:00,62.6,62.3,29.74,East,86,0.0,2.0,99,0.13,,,0.38,74,WeatherCatV1.14B232,2013-06-07 15:06:00,
2013-06-07 11:11:00,62.5,62.2,29.74,NE,46,0.0,1.0,99,0.09,,,0.39,65,WeatherCatV1.14B232,2013-06-07 15:11:00,
2013-06-07 11:16:00,62.5,62.2,29.74,ENE,70,0.0,2.0,99,0.13,,,0.40,67,WeatherCatV1.14B232,2013-06-07 15:16:00,
2013-06-07 11:21:00,62.4,62.1,29.74,NNE,22,0.0,1.0,99,0.12,,,0.42,77,WeatherCatV1.14B232,2013-06-07 15:21:00,
2013-06-07 11:26:00,62.4,62.1,29.73,North,355,0.0,3.0,99,0.21,,,0.43,84,WeatherCatV1.14B232,2013-06-07 15:26:00,
2013-06-07 11:31:00,62.5,62.2,29.74,North,5,0.0,1.0,99,0.16,,,0.44,72,WeatherCatV1.14B232,2013-06-07 15:31:00,
2013-06-07 11:36:00,62.6,62.3,29.73,North,5,0.0,0.0,99,0.07,,,0.44,58,WeatherCatV1.14B232,2013-06-07 15:36:00,
2013-06-07 11:41:00,62.6,62.3,29.74,North,355,1.0,4.0,99,0.05,,,0.45,63,WeatherCatV1.14B232,2013-06-07 15:41:00,
2013-06-07 11:46:00,62.3,62.0,29.73,North,5,0.0,3.0,99,0.05,,,0.45,67,WeatherCatV1.14B232,2013-06-07 15:46:00,
2013-06-07 11:51:00,62.5,62.2,29.74,WSW,255,0.0,0.0,99,0.09,,,0.46,39,WeatherCatV1.14B232,2013-06-07 15:51:00,
2013-06-07 11:54:00,62.5,62.2,29.74,SE,131,0.0,2.0,99,0.08,,,0.46,47,WeatherCatV1.14B232,2013-06-07 15:54:00,
2013-06-07 11:56:00,62.5,62.2,29.73,NNE,13,0.0,2.0,99,0.06,,,0.46,49,WeatherCatV1.14B232,2013-06-07 15:56:00,
2013-06-07 12:01:00,62.5,62.2,29.73,North,5,0.0,4.0,99,0.04,,,0.47,51,WeatherCatV1.14B232,2013-06-07 16:01:00,
2013-06-07 12:06:00,62.4,62.1,29.73,NE,44,0.0,1.0,99,0.04,,,0.47,67,WeatherCatV1.14B232,2013-06-07 16:06:00,
2013-06-07 12:11:00,62.4,62.1,29.73,ENE,68,0.0,2.0,99,0.08,,,0.48,54,WeatherCatV1.14B232,2013-06-07 16:11:00,
2013-06-07 12:16:00,62.4,62.1,29.73,ENE,65,0.0,0.0,99,0.08,,,0.48,62,WeatherCatV1.14B232,2013-06-07 16:16:00,
2013-06-07 12:21:00,62.5,62.2,29.73,NNW,344,0.0,3.0,99,0.05,,,0.49,58,WeatherCatV1.14B232,2013-06-07 16:21:00,
2013-06-07 12:26:00,62.5,62.2,29.73,NE,42,0.0,3.0,99,0.10,,,0.49,42,WeatherCatV1.14B232,2013-06-07 16:26:00,
2013-06-07 12:31:00,62.4,62.1,29.73,ENE,63,0.0,1.0,99,0.10,,,0.50,58,WeatherCatV1.14B232,2013-06-07 16:31:00,
2013-06-07 12:36:00,62.4,62.1,29.73,ENE,73,1.0,2.0,99,0.12,,,0.51,51,WeatherCatV1.14B232,2013-06-07 16:36:00,
2013-06-07 12:41:00,62.5,62.2,29.73,East,95,1.0,2.0,99,0.08,,,0.52,56,WeatherCatV1.14B232,2013-06-07 16:41:00,
2013-06-07 12:46:00,62.4,62.1,29.73,SSW,194,0.0,0.0,99,0.13,,,0.53,63,WeatherCatV1.14B232,2013-06-07 16:46:00,
2013-06-07 12:51:00,62.4,62.1,29.73,North,11,3.0,4.0,99,0.08,,,0.54,60,WeatherCatV1.14B232,2013-06-07 16:51:00,
2013-06-07 12:56:00,62.3,62.0,29.72,NE,34,0.0,5.0,99,0.08,,,0.54,49,WeatherCatV1.14B232,2013-06-07 16:56:00,
2013-06-07 13:01:00,62.3,62.0,29.72,East,83,1.0,2.0,99,0.09,,,0.55,51,WeatherCatV1.14B232,2013-06-07 17:01:00,
2013-06-07 13:06:00,62.2,61.9,29.72,North,11,3.0,3.0,99,0.13,,,0.56,46,WeatherCatV1.14B232,2013-06-07 17:06:00,
2013-06-07 13:11:00,62.1,61.8,29.72,East,94,0.0,3.0,99,0.08,,,0.57,54,WeatherCatV1.14B232,2013-06-07 17:11:00,
2013-06-07 13:16:00,62.0,61.7,29.71,East,84,0.0,3.0,99,0.12,,,0.58,51,WeatherCatV1.14B232,2013-06-07 17:16:00,
2013-06-07 13:21:00,62.0,61.7,29.71,NNE,13,0.0,0.0,99,0.09,,,0.58,56,WeatherCatV1.14B232,2013-06-07 17:21:00,
2013-06-07 13:26:00,62.0,61.7,29.71,East,86,0.0,2.0,99,0.08,,,0.59,47,WeatherCatV1.14B232,2013-06-07 17:26:00,
2013-06-07 13:31:00,62.1,61.8,29.71,North,5,0.0,0.0,99,0.10,,,0.60,42,WeatherCatV1.14B232,2013-06-07 17:31:00,
2013-06-07 13:36:00,62.1,61.8,29.71,North,0,0.0,0.0,99,0.09,,,0.61,39,WeatherCatV1.14B232,2013-06-07 17:36:00,
2013-06-07 13:41:00,62.1,61.8,29.71,North,5,0.0,3.0,99,0.09,,,0.61,40,WeatherCatV1.14B232,2013-06-07 17:41:00,
2013-06-07 13:46:00,62.0,61.7,29.71,NNE,22,0.0,1.0,99,0.08,,,0.62,42,WeatherCatV1.14B232,2013-06-07 17:46:00,
2013-06-07 13:51:00,61.9,61.6,29.71,NNE,18,0.0,0.0,99,0.07,,,0.62,46,WeatherCatV1.14B232,2013-06-07 17:51:00,
2013-06-07 13:56:00,62.0,61.7,29.71,North,5,1.0,2.0,99,0.05,,,0.62,44,WeatherCatV1.14B232,2013-06-07 17:56:00,
2013-06-07 14:01:00,61.9,61.6,29.70,NNE,22,0.0,2.0,99,0.04,,,0.63,39,WeatherCatV1.14B232,2013-06-07 18:01:00,
2013-06-07 14:06:00,62.0,61.7,29.70,North,5,0.0,0.0,99,0.04,,,0.63,39,WeatherCatV1.14B232,2013-06-07 18:06:00,
2013-06-07 14:11:00,62.1,61.8,29.70,NNE,15,0.0,2.0,99,0.35,,,0.66,47,WeatherCatV1.14B232,2013-06-07 18:11:00,
2013-06-07 14:16:00,62.1,61.8,29.70,NNE,19,1.0,2.0,99,0.10,,,0.67,37,WeatherCatV1.14B232,2013-06-07 18:16:00,
2013-06-07 14:21:00,62.2,61.9,29.70,North,355,0.0,2.0,99,0.10,,,0.67,40,WeatherCatV1.14B232,2013-06-07 18:21:00,
2013-06-07 14:26:00,62.2,61.9,29.70,North,5,0.0,1.0,99,0.05,,,0.67,30,WeatherCatV1.14B232,2013-06-07 18:26:00,
2013-06-07 14:31:00,62.1,61.8,29.70,NE,45,0.0,1.0,99,0.04,,,0.68,32,WeatherCatV1.14B232,2013-06-07 18:31:00,
2013-06-07 14:36:00,62.2,61.9,29.70,NE,45,0.0,0.0,99,0.04,,,0.68,37,WeatherCatV1.14B232,2013-06-07 18:36:00,
2013-06-07 14:41:00,62.2,61.9,29.69,NNE,22,0.0,1.0,99,0.07,,,0.69,49,WeatherCatV1.14B232,2013-06-07 18:41:00,
2013-06-07 14:46:00,62.2,61.9,29.69,NNE,22,0.0,0.0,99,0.07,,,0.69,51,WeatherCatV1.14B232,2013-06-07 18:46:00,
2013-06-07 14:51:00,62.2,61.9,29.69,NNE,22,0.0,0.0,99,0.04,,,0.69,39,WeatherCatV1.14B232,2013-06-07 18:51:00,
2013-06-07 14:56:00,62.2,61.9,29.69,North,355,0.0,3.0,99,0.04,,,0.70,44,WeatherCatV1.14B232,2013-06-07 18:56:00,
2013-06-07 15:01:00,62.2,61.9,29.68,NE,48,0.0,1.0,99,0.04,,,0.70,44,WeatherCatV1.14B232,2013-06-07 19:01:00,
2013-06-07 15:06:00,62.2,61.9,29.68,NE,46,0.0,2.0,99,0.07,,,0.71,53,WeatherCatV1.14B232,2013-06-07 19:06:00,
2013-06-07 15:11:00,62.2,61.9,29.68,NE,46,0.0,1.0,99,0.07,,,0.71,63,WeatherCatV1.14B232,2013-06-07 19:11:00,
2013-06-07 15:17:00,62.3,62.0,29.68,North,11,0.0,1.0,99,0.06,,,0.72,62,WeatherCatV1.14B232,2013-06-07 19:17:00,
2013-06-07 15:22:00,62.3,62.0,29.67,NE,51,0.0,2.0,99,0.06,,,0.72,62,WeatherCatV1.14B232,2013-06-07 19:22:00,
2013-06-07 15:27:00,62.3,62.0,29.67,North,9,0.0,2.0,99,0.04,,,0.72,65,WeatherCatV1.14B232,2013-06-07 19:27:00,
2013-06-07 15:32:00,62.3,62.0,29.67,NNE,19,0.0,4.0,99,0.04,,,0.73,46,WeatherCatV1.14B232,2013-06-07 19:32:00,
2013-06-07 15:37:00,62.4,62.1,29.67,NNE,18,0.0,0.0,99,0.04,,,0.73,44,WeatherCatV1.14B232,2013-06-07 19:37:00,
2013-06-07 15:42:00,62.4,62.1,29.66,NE,35,1.0,2.0,99,0.04,,,0.73,40,WeatherCatV1.14B232,2013-06-07 19:42:00,
2013-06-07 15:47:00,62.2,61.9,29.66,NE,34,1.0,3.0,99,0.00,,,0.74,32,WeatherCatV1.14B232,2013-06-07 19:47:00,
2013-06-07 15:52:00,62.0,61.7,29.66,NNE,28,0.0,4.0,99,0.00,,,0.74,30,WeatherCatV1.14B232,2013-06-07 19:52:00,
2013-06-07 15:57:00,61.8,61.5,29.66,NNE,24,1.0,1.0,99,0.00,,,0.74,30,WeatherCatV1.14B232,2013-06-07 19:57:00,
2013-06-07 16:02:00,61.6,61.3,29.66,North,5,0.0,2.0,99,0.05,,,0.75,30,WeatherCatV1.14B232,2013-06-07 20:02:00,
2013-06-07 16:07:00,61.5,61.2,29.66,NNE,18,1.0,3.0,99,0.08,,,0.76,23,WeatherCatV1.14B232,2013-06-07 20:07:00,
2013-06-07 16:12:00,61.3,61.0,29.65,NE,35,0.0,2.0,99,0.32,,,0.78,18,WeatherCatV1.14B232,2013-06-07 20:12:00,
2013-06-07 16:17:00,61.2,60.9,29.65,North,10,2.0,3.0,99,0.13,,,0.79,12,WeatherCatV1.14B232,2013-06-07 20:17:00,
2013-06-07 16:22:00,61.1,60.8,29.64,NNE,24,0.0,3.0,99,0.25,,,0.81,12,WeatherCatV1.14B232,2013-06-07 20:22:00,
2013-06-07 16:27:00,60.9,60.6,29.64,NNE,12,0.0,5.0,99,0.20,,,0.82,11,WeatherCatV1.14B232,2013-06-07 20:27:00,
2013-06-07 16:32:00,60.8,60.5,29.63,NNE,31,0.0,1.0,99,0.19,,,0.84,12,WeatherCatV1.14B232,2013-06-07 20:32:00,
2013-06-07 16:37:00,60.7,60.4,29.63,NNE,20,2.0,2.0,99,0.38,,,0.88,16,WeatherCatV1.14B232,2013-06-07 20:37:00,
2013-06-07 16:42:00,60.5,60.2,29.63,ENE,65,1.0,2.0,99,0.29,,,0.93,12,WeatherCatV1.14B232,2013-06-07 20:42:00,
2013-06-07 16:47:00,60.5,60.2,29.62,NE,55,1.0,3.0,99,0.25,,,0.96,11,WeatherCatV1.14B232,2013-06-07 20:47:00,
2013-06-07 16:52:00,60.4,60.1,29.62,NNE,21,0.0,3.0,99,0.17,,,0.97,7,WeatherCatV1.14B232,2013-06-07 20:52:00,
2013-06-07 16:57:00,60.4,60.1,29.61,NE,55,1.0,2.0,99,0.18,,,0.98,7,WeatherCatV1.14B232,2013-06-07 20:57:00,
2013-06-07 17:02:00,60.3,60.0,29.62,NNE,15,0.0,2.0,99,0.17,,,1.00,0,WeatherCatV1.14B232,2013-06-07 21:02:00,
2013-06-07 17:07:00,60.2,59.9,29.62,NNE,17,2.0,4.0,99,0.31,,,1.03,5,WeatherCatV1.14B232,2013-06-07 21:07:00,
2013-06-07 17:12:00,60.1,59.8,29.62,North,355,0.0,2.0,99,0.32,,,1.05,5,WeatherCatV1.14B232,2013-06-07 21:12:00,
2013-06-07 17:17:00,60.0,59.7,29.61,NNE,20,2.0,2.0,99,0.32,,,1.07,14,WeatherCatV1.14B232,2013-06-07 21:17:00,
2013-06-07 17:22:00,59.9,59.6,29.61,NNE,22,0.0,4.0,99,0.27,,,1.10,21,WeatherCatV1.14B232,2013-06-07 21:22:00,
2013-06-07 17:27:00,59.8,59.5,29.60,NNE,30,0.0,4.0,99,0.38,,,1.13,30,WeatherCatV1.14B232,2013-06-07 21:27:00,
2013-06-07 17:32:00,59.8,59.5,29.58,NNE,30,6.0,6.0,99,0.16,,,1.14,40,WeatherCatV1.14B232,2013-06-07 21:32:00,
2013-06-07 17:37:00,59.7,59.4,29.58,ENE,69,1.0,4.0,99,0.16,,,1.16,54,WeatherCatV1.14B232,2013-06-07 21:37:00,
2013-06-07 17:42:00,59.7,59.4,29.58,NE,52,3.0,6.0,99,0.09,,,1.16,65,WeatherCatV1.14B232,2013-06-07 21:42:00,
2013-06-07 17:47:00,59.7,59.4,29.58,NNW,347,3.0,5.0,99,0.09,,,1.17,81,WeatherCatV1.14B232,2013-06-07 21:47:00,
2013-06-07 17:52:00,59.6,59.3,29.58,NE,55,1.0,3.0,99,0.06,,,1.17,63,WeatherCatV1.14B232,2013-06-07 21:52:00,
2013-06-07 17:57:00,59.6,59.3,29.58,ENE,59,2.0,9.0,99,0.06,,,1.18,40,WeatherCatV1.14B232,2013-06-07 21:57:00,
2013-06-07 18:02:00,59.5,59.2,29.58,ENE,61,0.0,3.0,99,0.06,,,1.18,19,WeatherCatV1.14B232,2013-06-07 22:02:00,
2013-06-07 18:07:00,59.4,59.1,29.59,NNE,30,0.0,5.0,99,0.04,,,1.18,11,WeatherCatV1.14B232,2013-06-07 22:07:00,
2013-06-07 18:12:00,59.3,59.0,29.58,NNE,30,2.0,6.0,99,0.00,,,1.18,11,WeatherCatV1.14B232,2013-06-07 22:12:00,
2013-06-07 18:17:00,59.1,58.8,29.58,NNE,24,1.0,4.0,99,0.00,,,1.19,7,WeatherCatV1.14B232,2013-06-07 22:17:00,
2013-06-07 18:22:00,59.1,58.8,29.59,ENE,62,1.0,6.0,99,0.00,,,1.19,11,WeatherCatV1.14B232,2013-06-07 22:22:00,
2013-06-07 18:27:00,59.0,58.7,29.59,East,97,0.0,5.0,99,0.00,,,1.19,11,WeatherCatV1.14B232,2013-06-07 22:27:00,
2013-06-07 18:32:00,58.9,58.6,29.59,NE,38,2.0,8.0,99,0.00,,,1.20,9,WeatherCatV1.14B232,2013-06-07 22:32:00,
2013-06-07 18:37:00,58.8,58.5,29.59,NNE,16,4.0,5.0,99,0.11,,,1.21,12,WeatherCatV1.14B232,2013-06-07 22:37:00,
2013-06-07 18:42:00,58.7,58.4,29.58,North,5,5.0,7.0,99,0.25,,,1.23,16,WeatherCatV1.14B232,2013-06-07 22:42:00,
2013-06-07 18:47:00,58.6,58.3,29.58,NNE,26,1.0,7.0,99,0.18,,,1.24,21,WeatherCatV1.14B232,2013-06-07 22:47:00,
2013-06-07 18:52:00,58.6,58.3,29.58,NNE,21,2.0,5.0,99,0.09,,,1.24,18,WeatherCatV1.14B232,2013-06-07 22:52:00,
2013-06-07 18:57:00,58.5,58.2,29.58,NE,41,0.0,3.0,99,0.06,,,1.25,16,WeatherCatV1.14B232,2013-06-07 22:57:00,
2013-06-07 19:02:00,58.5,58.2,29.58,NE,40,1.0,6.0,99,0.06,,,1.25,16,WeatherCatV1.14B232,2013-06-07 23:02:00,
2013-06-07 19:07:00,58.5,58.2,29.58,NNE,18,0.0,4.0,99,0.05,,,1.25,9,WeatherCatV1.14B232,2013-06-07 23:07:00,
2013-06-07 19:12:00,58.5,58.2,29.58,NNE,32,1.0,7.0,99,0.16,,,1.27,5,WeatherCatV1.14B232,2013-06-07 23:12:00,
2013-06-07 19:17:00,58.4,58.1,29.59,NE,51,0.0,2.0,99,0.30,,,1.29,0,WeatherCatV1.14B232,2013-06-07 23:17:00,
2013-06-07 19:22:00,58.4,58.1,29.57,NNE,27,2.0,4.0,99,1.64,,,1.38,5,WeatherCatV1.14B232,2013-06-07 23:22:00,
2013-06-07 19:27:00,58.4,58.1,29.57,NE,40,1.0,5.0,99,0.53,,,1.46,5,WeatherCatV1.14B232,2013-06-07 23:27:00,
2013-06-07 19:32:00,58.3,58.0,29.57,NE,55,5.0,10.0,99,0.83,,,1.51,5,WeatherCatV1.14B232,2013-06-07 23:32:00,
2013-06-07 19:37:00,58.3,58.0,29.57,ENE,76,2.0,4.0,99,0.15,,,1.52,5,WeatherCatV1.14B232,2013-06-07 23:37:00,
2013-06-07 19:42:00,58.3,58.0,29.57,NNE,27,2.0,3.0,99,0.13,,,1.53,0,WeatherCatV1.14B232,2013-06-07 23:42:00,
2013-06-07 19:47:00,58.4,58.1,29.57,ENE,69,2.0,5.0,99,0.07,,,1.53,0,WeatherCatV1.14B232,2013-06-07 23:47:00,
2013-06-07 19:52:00,58.4,58.1,29.57,ENE,58,2.0,3.0,99,2.52,,,1.59,0,WeatherCatV1.14B232,2013-06-07 23:52:00,
2013-06-07 19:57:00,58.4,58.1,29.57,ENE,57,2.0,5.0,99,0.94,,,1.68,0,WeatherCatV1.14B232,2013-06-07 23:57:00,
2013-06-07 20:02:00,58.4,58.1,29.57,ENE,69,1.0,5.0,99,0.26,,,1.70,0,WeatherCatV1.14B232,2013-06-08 00:02:00,
2013-06-07 20:07:00,58.5,58.2,29.56,NE,46,2.0,4.0,99,0.08,,,1.70,0,WeatherCatV1.14B232,2013-06-08 00:07:00,
2013-06-07 20:12:00,58.6,58.3,29.56,North,9,1.0,3.0,99,0.05,,,1.71,0,WeatherCatV1.14B232,2013-06-08 00:12:00,
2013-06-07 20:17:00,58.7,58.4,29.55,NE,38,6.0,8.0,99,0.05,,,1.71,0,WeatherCatV1.14B232,2013-06-08 00:17:00,
2013-06-07 20:22:00,58.8,58.5,29.55,ENE,69,3.0,4.0,99,0.05,,,1.71,0,WeatherCatV1.14B232,2013-06-08 00:22:00,
2013-06-07 20:27:00,59.0,58.7,29.55,NE,44,0.0,6.0,99,0.87,,,1.77,0,WeatherCatV1.14B232,2013-06-08 00:27:00,
2013-06-07 20:32:00,59.1,58.8,29.55,NNW,336,4.0,4.0,99,0.30,,,1.81,0,WeatherCatV1.14B232,2013-06-08 00:32:00,
2013-06-07 20:37:00,59.2,58.9,29.55,ENE,65,1.0,7.0,99,0.12,,,1.82,0,WeatherCatV1.14B232,2013-06-08 00:37:00,
2013-06-07 20:42:00,59.3,59.0,29.55,NE,43,2.0,6.0,99,0.09,,,1.83,0,WeatherCatV1.14B232,2013-06-08 00:42:00,
2013-06-07 20:47:00,59.4,59.1,29.55,ENE,57,1.0,4.0,99,0.09,,,1.83,0,WeatherCatV1.14B232,2013-06-08 00:47:00,
2013-06-07 20:52:00,59.5,59.2,29.55,NE,53,2.0,4.0,99,0.08,,,1.84,0,WeatherCatV1.14B232,2013-06-08 00:52:00,
2013-06-07 20:57:00,59.5,59.2,29.55,NNE,27,2.0,2.0,99,0.08,,,1.84,0,WeatherCatV1.14B232,2013-06-08 00:57:00,
2013-06-07 21:02:00,59.5,59.2,29.55,ENE,65,0.0,2.0,99,0.06,,,1.85,0,WeatherCatV1.14B232,2013-06-08 01:02:00,
2013-06-07 21:07:00,59.5,59.2,29.55,ENE,65,2.0,7.0,99,0.06,,,1.85,0,WeatherCatV1.14B232,2013-06-08 01:07:00,
2013-06-07 21:12:00,59.6,59.3,29.55,ENE,75,1.0,5.0,99,0.05,,,1.86,0,WeatherCatV1.14B232,2013-06-08 01:12:00,
2013-06-07 21:17:00,59.6,59.3,29.55,ENE,61,2.0,8.0,99,0.05,,,1.86,0,WeatherCatV1.14B232,2013-06-08 01:17:00,
2013-06-07 21:22:00,59.6,59.3,29.55,NE,55,3.0,4.0,99,0.05,,,1.86,0,WeatherCatV1.14B232,2013-06-08 01:22:00,
2013-06-07 21:27:00,59.6,59.3,29.55,ENE,68,4.0,8.0,99,0.04,,,1.87,0,WeatherCatV1.14B232,2013-06-08 01:27:00,
2013-06-07 21:32:00,59.6,59.3,29.54,NE,51,3.0,3.0,99,0.10,,,1.88,0,WeatherCatV1.14B232,2013-06-08 01:32:00,
2013-06-07 21:37:00,59.7,59.4,29.54,NNE,15,1.0,4.0,99,0.17,,,1.89,0,WeatherCatV1.14B232,2013-06-08 01:37:00,
2013-06-07 21:42:00,59.7,59.4,29.54,NE,56,0.0,4.0,99,0.41,,,1.91,0,WeatherCatV1.14B232,2013-06-08 01:42:00,
2013-06-07 21:47:00,59.7,59.4,29.54,NNE,15,2.0,6.0,99,0.30,,,1.97,0,WeatherCatV1.14B232,2013-06-08 01:47:00,
2013-06-07 21:52:00,59.6,59.3,29.53,ENE,74,0.0,6.0,99,0.22,,,1.99,0,WeatherCatV1.14B232,2013-06-08 01:52:00,
2013-06-07 21:57:00,59.6,59.3,29.53,ENE,78,0.0,4.0,99,0.20,,,2.00,0,WeatherCatV1.14B232,2013-06-08 01:57:00,
2013-06-07 22:02:00,59.6,59.3,29.54,East,88,3.0,6.0,99,0.43,,,2.03,0,WeatherCatV1.14B232,2013-06-08 02:02:00,
2013-06-07 22:07:00,59.6,59.3,29.53,NE,44,1.0,6.0,99,0.14,,,2.04,0,WeatherCatV1.14B232,2013-06-08 02:07:00,
2013-06-07 22:12:00,59.6,59.3,29.53,ENE,65,2.0,6.0,99,0.12,,,2.05,0,WeatherCatV1.14B232,2013-06-08 02:12:00,
2013-06-07 22:17:00,59.5,59.2,29.52,ENE,63,2.0,5.0,99,0.19,,,2.07,0,WeatherCatV1.14B232,2013-06-08 02:17:00,
2013-06-07 22:22:00,59.5,59.2,29.52,ENE,61,2.0,2.0,99,0.24,,,2.09,0,WeatherCatV1.14B232,2013-06-08 02:22:00,
2013-06-07 22:27:00,59.5,59.2,29.52,East,79,1.0,7.0,99,0.46,,,2.13,0,WeatherCatV1.14B232,2013-06-08 02:27:00,
2013-06-07 22:32:00,59.5,59.2,29.52,ENE,75,2.0,5.0,99,0.57,,,2.16,0,WeatherCatV1.14B232,2013-06-08 02:32:00,
2013-06-07 22:37:00,59.5,59.2,29.52,ENE,62,0.0,4.0,99,0.41,,,2.22,0,WeatherCatV1.14B232,2013-06-08 02:37:00,
2013-06-07 22:42:00,59.4,59.1,29.52,NNE,28,4.0,8.0,99,0.43,,,2.25,0,WeatherCatV1.14B232,2013-06-08 02:42:00,
2013-06-07 22:47:00,59.4,59.1,29.52,NE,38,1.0,7.0,99,0.18,,,2.27,0,WeatherCatV1.14B232,2013-06-08 02:47:00,
2013-06-07 22:52:00,59.4,59.1,29.52,NE,38,0.0,4.0,99,0.19,,,2.28,0,WeatherCatV1.14B232,2013-06-08 02:52:00,
2013-06-07 22:57:00,59.4,59.1,29.51,ENE,74,3.0,4.0,99,0.29,,,2.30,0,WeatherCatV1.14B232,2013-06-08 02:57:00,
2013-06-07 23:02:00,59.4,59.1,29.52,NE,42,1.0,3.0,99,0.15,,,2.31,0,WeatherCatV1.14B232,2013-06-08 03:02:00,
2013-06-07 23:07:00,59.4,59.1,29.51,NE,56,0.0,2.0,99,0.11,,,2.32,0,WeatherCatV1.14B232,2013-06-08 03:07:00,
2013-06-07 23:12:00,59.4,59.1,29.51,North,5,2.0,4.0,99,0.09,,,2.32,0,WeatherCatV1.14B232,2013-06-08 03:12:00,
2013-06-07 23:17:00,59.4,59.1,29.50,NNE,32,0.0,4.0,99,0.05,,,2.32,0,WeatherCatV1.14B232,2013-06-08 03:17:00,
2013-06-07 23:22:00,59.4,59.1,29.50,NNE,26,6.0,6.0,99,0.04,,,2.33,0,WeatherCatV1.14B232,2013-06-08 03:22:00,
2013-06-07 23:27:00,59.3,59.0,29.50,North,11,0.0,5.0,99,0.11,,,2.34,0,WeatherCatV1.14B232,2013-06-08 03:27:00,
2013-06-07 23:32:00,59.3,59.0,29.50,ENE,67,0.0,2.0,99,0.12,,,2.35,0,WeatherCatV1.14B232,2013-06-08 03:32:00,
2013-06-07 23:37:00,59.3,59.0,29.49,NE,43,4.0,4.0,99,0.27,,,2.37,0,WeatherCatV1.14B232,2013-06-08 03:37:00,
2013-06-07 23:42:00,59.3,59.0,29.49,NNE,26,1.0,4.0,99,0.17,,,2.38,0,WeatherCatV1.14B232,2013-06-08 03:42:00,
2013-06-07 23:47:00,59.2,58.9,29.49,NE,45,0.0,5.0,99,0.18,,,2.40,0,WeatherCatV1.14B232,2013-06-08 03:47:00,
2013-06-07 23:52:00,59.2,58.9,29.49,NNE,26,1.0,2.0,99,0.09,,,2.40,0,WeatherCatV1.14B232,2013-06-08 03:52:00,
2013-06-07 23:57:00,59.1,58.8,29.48,NE,55,2.0,6.0,99,0.07,,,2.41,0,WeatherCatV1.14B232,2013-06-08 03:57:00,